This is the latest recevied weather packets stored in our database for station/object DG2US-10. If no packets are shown the sender has not sent any weather packets the latest 10 day(s).
| Time | Temp. | Humidity | Pressure | Rain* | Wind** | Luminosity | Snow |
|---|---|---|---|---|---|---|---|
| 1777654522 | 30.56° C | 22% | 1025.8 hPa | - | - | - | - |
| 1777653622 | 30.56° C | 23% | 1025.9 hPa | - | - | - | - |
| 1777652722 | 30.56° C | 23% | 1025.9 hPa | - | - | - | - |
| 1777651822 | 30.56° C | 22% | 1026 hPa | - | - | - | - |
| 1777650921 | 31.11° C | 23% | 1026.2 hPa | - | - | - | - |
| 1777650021 | 31.11° C | 23% | 1026.3 hPa | - | - | - | - |
| 1777649121 | 30° C | 25% | 1026.4 hPa | - | - | - | - |
| 1777648221 | 30° C | 25% | 1026.5 hPa | - | - | - | - |
| 1777647321 | 30° C | 25% | 1026.7 hPa | - | - | - | - |
| 1777646421 | 29.44° C | 24% | 1026.9 hPa | - | - | - | - |
| 1777645521 | 30° C | 25% | 1026.9 hPa | - | - | - | - |
| 1777644621 | 29.44° C | 26% | 1027.1 hPa | - | - | - | - |
| 1777643721 | 29.44° C | 26% | 1027.2 hPa | - | - | - | - |
| 1777642821 | 28.89° C | 27% | 1027.3 hPa | - | - | - | - |
| 1777641921 | 28.33° C | 25% | 1027.6 hPa | - | - | - | - |
| 1777641021 | 28.33° C | 23% | 1027.6 hPa | - | - | - | - |
| 1777640121 | 28.89° C | 26% | 1027.9 hPa | - | - | - | - |
| 1777639220 | 28.89° C | 21% | 1028 hPa | - | - | - | - |
| 1777638320 | 29.44° C | 23% | 1028.2 hPa | - | - | - | - |
| 1777637420 | 29.44° C | 20% | 1028.4 hPa | - | - | - | - |
| 1777636520 | 30° C | 22% | 1028.4 hPa | - | - | - | - |
| 1777635620 | 30.56° C | 22% | 1028.5 hPa | - | - | - | - |
| 1777634720 | 31.11° C | 20% | 1028.7 hPa | - | - | - | - |
| 1777633820 | 31.67° C | 20% | 1028.8 hPa | - | - | - | - |
| 1777632920 | 31.67° C | 20% | 1029 hPa | - | - | - | - |
* Rain since midnight (hover to see other rain measurements)
** Current wind speed in m/s (hover to see current wind gust speed)